Location: Antioch Baptist Church
(32.6696°N, 85.7327°W)
Time: 12:28:54
(UTC+00:00)

Cosmos 2360 Rocket - Pass Details

Date: 14 July 2020
Orbit: 832 x 846 km, 71.0° (Epoch: 08 August)

Event Time Altitude Azimuth Distance (km) Brightness Sun altitude
Rises 10:08:05 0° 345° (NNW) 3,411 5.6 -7.8°
Reaches altitude 10° 10:10:37 10° 351° (N) 2,472 4.9 -7.3°
Maximum altitude 10:16:07 50° 66° (ENE) 1,071 3.4 -6.3°
Drops below altitude 10° 10:21:34 10° 141° (SE) 2,455 4.7 -5.3°
Sets 10:24:05 0° 147° (SSE) 3,385 5.4 -4.9°
